Branson, MO

12:37 AM CST on November 23, 2017 (GMT -0600)
Branson

Weather History for KBBG - November, 2013

Change the Weather History Date:

Thursday, November 7, 2013

  Actual Average (KHRO) Record (KHRO)
Temperature  
Mean Temperature 46 °F -  
Max Temperature 59 °F 58 °F 83 °F (2009)
Min Temperature 32 °F 39 °F 15 °F (1959)
Degree Days  
Heating Degree Days 20    
Moisture  
Dew Point 34 °F    
Average Humidity 61    
Maximum Humidity 100    
Minimum Humidity 34    
Precipitation  
Precipitation 0.00 in - - ()
Sea Level Pressure  
Sea Level Pressure 30.37 in    
Wind  
Wind Speed 2 mph (West)    
Max Wind Speed 12 mph    
Max Gust Speed -    
Visibility 10 miles    
Events Fog    
Averages and records for this station are not official NWS values.
T = Trace of Precipitation, MM = Missing Value Source: NWS Daily Summary

Daily Weather History Graph

Daily Weather History Graph

Search for Another Location

Airport or City:

Trip Planner

Search our weather history database for the weather conditions in past years. The results will help you decide how hot, cold, wet, or windy it might be!

Date:

Astronomy

Nov. 07, 2013 Rise Set
Actual Time 6:42 AM CST 5:10 PM CST
Civil Twilight 6:15 AM CST 5:37 PM CST
Nautical Twilight 5:44 AM CST 6:07 PM CST
Astronomical Twilight 5:14 AM CST 6:38 PM CST
Moon 10:50 AM CST (11/7) 9:23 PM CST (11/7)
Length of Visible Light 11h 21m
Length of Day
10h 27m
Waxing Crescent, 23% of the Moon is Illuminated
Nov 7
Waxing Crescent
Nov 9
First Quarter
Nov 17
Full
Nov 25
Last Quarter
Dec 2
New

Hourly Weather History & Observations

Time (CST) Temp. Windchill Dew Point Humidity Pressure Visibility Wind Dir Wind Speed Gust Speed Precip Events Conditions
12:15 AM 37.4 °F 33.8 °F - N/A% 30.36 in 10.0 mi WNW 4.6 mph - N/A   Overcast
12:35 AM 37.4 °F 34.9 °F - N/A% 30.36 in 10.0 mi WNW 3.5 mph - N/A   Overcast
12:55 AM 35.6 °F - - N/A% 30.35 in 10.0 mi Calm Calm - N/A   Mostly Cloudy
1:15 AM 35.6 °F - - N/A% 30.35 in 10.0 mi Calm Calm - N/A   Scattered Clouds
1:55 AM 35.6 °F - - N/A% 30.35 in 10.0 mi Calm Calm - N/A   Partly Cloudy
2:15 AM 35.6 °F - - N/A% 30.35 in 10.0 mi Calm Calm - N/A   Clear
2:35 AM 33.8 °F - - N/A% 30.36 in 10.0 mi Calm Calm - N/A   Clear
2:55 AM 33.8 °F - - N/A% 30.36 in 10.0 mi Calm Calm - N/A   Clear
3:15 AM 33.8 °F - - N/A% 30.37 in 10.0 mi Calm Calm - N/A   Clear
3:35 AM 32.0 °F - - N/A% 30.37 in 10.0 mi Calm Calm - N/A   Clear
3:55 AM 32.0 °F - - N/A% 30.37 in 10.0 mi Calm Calm - N/A   Clear
4:15 AM 32.0 °F - - N/A% 30.38 in 10.0 mi Calm Calm - N/A   Clear
4:35 AM 32.0 °F - - N/A% 30.39 in 10.0 mi Calm Calm - N/A   Clear
4:55 AM 32.0 °F - - N/A% 30.39 in 9.0 mi Calm Calm - N/A   Clear
5:15 AM 32.0 °F - - N/A% 30.39 in 10.0 mi Calm Calm - N/A   Clear
5:35 AM 32.0 °F - - N/A% 30.39 in 10.0 mi Calm Calm - N/A   Clear
6:55 AM 33.8 °F - 33.8 °F 100% 30.41 in 0.2 mi Calm Calm - N/A Fog Fog
7:51 AM 35.6 °F 31.7 °F 35.6 °F 100% 30.42 in 5.0 mi WSW 4.6 mph - N/A   Partly Cloudy
8:54 AM 41.0 °F 38.0 °F 37.4 °F 87% 30.44 in 10.0 mi SW 4.6 mph - N/A   Partly Cloudy
9:51 AM 44.6 °F 43.1 °F 35.6 °F 71% 30.44 in 10.0 mi SW 3.5 mph - N/A   Clear
10:45 AM 50.0 °F - 35.6 °F 58% 30.43 in 10.0 mi West 6.9 mph - N/A   Clear
11:45 AM 50.0 °F - 35.6 °F 58% 30.41 in 10.0 mi NW 5.8 mph - N/A   Clear
12:48 PM 55.4 °F - 33.8 °F 44% 30.38 in 10.0 mi WNW 10.4 mph - N/A   Clear
1:50 PM 57.2 °F - 33.8 °F 41% 30.36 in 10.0 mi WNW 11.5 mph - N/A   Clear
2:45 PM 59.0 °F - 30.2 °F 34% 30.34 in 10.0 mi WNW 10.4 mph - N/A   Clear
3:45 PM 57.2 °F - 30.2 °F 36% 30.34 in 10.0 mi WNW 9.2 mph - N/A   Clear
4:55 PM 55.4 °F - 32.0 °F 41% 30.35 in 10.0 mi NW 4.6 mph - N/A   Clear
5:50 PM 50.0 °F - 33.8 °F 54% 30.36 in 10.0 mi WNW 4.6 mph - N/A   Clear
6:45 PM 48.2 °F - 35.6 °F 62% 30.37 in 10.0 mi Calm Calm - N/A   Clear
7:45 PM 48.2 °F - 35.6 °F 62% 30.37 in 10.0 mi Calm Calm - N/A   Clear
8:15 PM 48.2 °F - - N/A% 30.37 in 10.0 mi West 3.5 mph - N/A   Clear
8:35 PM 46.4 °F - - N/A% 30.37 in 10.0 mi Calm Calm - N/A   Clear
8:45 PM 46.4 °F - 35.6 °F 66% 30.37 in 10.0 mi Calm Calm - N/A   Clear
8:55 PM 44.6 °F - - N/A% 30.37 in 10.0 mi Calm Calm - N/A   Clear
9:15 PM 44.6 °F - - N/A% 30.37 in 10.0 mi Calm Calm - N/A   Clear
9:35 PM 41.0 °F - - N/A% 30.37 in 10.0 mi Calm Calm - N/A   Clear
9:55 PM 39.2 °F - - N/A% 30.37 in 10.0 mi Calm Calm - N/A   Clear
10:15 PM 41.0 °F - - N/A% 30.37 in 10.0 mi Calm Calm - N/A   Clear
10:35 PM 39.2 °F - - N/A% 30.37 in 10.0 mi Calm Calm - N/A   Clear
10:55 PM 39.2 °F - - N/A% 30.37 in 10.0 mi Calm Calm - N/A   Clear
11:15 PM 44.6 °F - - N/A% 30.37 in 10.0 mi Calm Calm - N/A   Clear
11:35 PM 44.6 °F 43.1 °F - N/A% 30.36 in 10.0 mi SW 3.5 mph - N/A   Clear
11:55 PM 44.6 °F 43.1 °F - N/A% 30.36 in 10.0 mi WSW 3.5 mph - N/A   Clear